This is the latest recevied weather packets stored in our database for station/object K8JMX-13. If no packets are shown the sender has not sent any weather packets the latest 1 day(s).
| Time | Temp. | Humidity | Pressure | Rain* | Wind** | Luminosity | Snow |
|---|---|---|---|---|---|---|---|
| 1778034945 | 15° C | 91% | 1006.7 hPa | 1.78 mm | 0.89 m/s, 192° | 0 W/m² | - |
| 1778034643 | 15° C | 91% | 1006.7 hPa | 3.56 mm | 1.34 m/s, 202° | 0 W/m² | - |
| 1778034340 | 15° C | 91% | 1006.8 hPa | 1.78 mm | 1.34 m/s, 197° | 0 W/m² | - |
| 1778034038 | 15° C | 91% | 1006.7 hPa | 1.27 mm | 0.45 m/s, 161° | 0 W/m² | - |
| 1778033735 | 15° C | 91% | 1006.8 hPa | 3.05 mm | 0.45 m/s, 15° | 0 W/m² | - |
| 1778033432 | 15° C | 91% | 1006.7 hPa | 3.05 mm | 0.45 m/s, 295° | 0 W/m² | - |
| 1778033130 | 15° C | 91% | 1006.9 hPa | 3.05 mm | 0.45 m/s, 189° | 0 W/m² | - |
| 1778032827 | 15° C | 91% | 1006.8 hPa | 4.83 mm | 0.89 m/s, 202° | 0 W/m² | - |
| 1778032525 | 15° C | 91% | 1006.9 hPa | 3.05 mm | 0.45 m/s, 163° | 0 W/m² | - |
| 1778032221 | 15° C | 91% | 1006.8 hPa | 3.05 mm | 0.45 m/s, 218° | 0 W/m² | - |
| 1778031919 | 15.56° C | 92% | 1006.8 hPa | 3.05 mm | 0.45 m/s, 138° | 0 W/m² | - |
| 1778031615 | 15.56° C | 92% | 1006.5 hPa | 3.05 mm | 0 m/s | 0 W/m² | - |
| 1778031313 | 15.56° C | 92% | 1006.7 hPa | 3.05 mm | 0 m/s | 0 W/m² | - |
| 1778031009 | 15.56° C | 92% | 1006.6 hPa | 1.27 mm | 0 m/s | 0 W/m² | - |
| 1778030705 | 15.56° C | 92% | 1006.4 hPa | 1.78 mm | 0 m/s | 0 W/m² | - |
| 1778030402 | 15.56° C | 92% | 1006.4 hPa | 1.78 mm | 0 m/s | 0 W/m² | - |
| 1778030100 | 15.56° C | 92% | 1006.4 hPa | 0 mm | 0 m/s | 0 W/m² | - |
| 1778029796 | 15.56° C | 91% | 1006.3 hPa | 0 mm | 0 m/s | 0 W/m² | - |
| 1778029495 | 15.56° C | 91% | 1006.3 hPa | 0 mm | 0 m/s | 0 W/m² | - |
| 1778029191 | 15.56° C | 91% | 1006.2 hPa | 0 mm | 0.89 m/s, 223° | 0 W/m² | - |
| 1778028889 | 15.56° C | 91% | 1006.3 hPa | 1.78 mm | 0.45 m/s, 164° | 0 W/m² | - |
| 1778028584 | 15.56° C | 91% | 1006.3 hPa | 1.78 mm | 0.45 m/s, 140° | 0 W/m² | - |
| 1778028282 | 15.56° C | 91% | 1006.3 hPa | 1.27 mm | 0 m/s | 0 W/m² | - |
| 1778027978 | 15.56° C | 91% | 1006.4 hPa | 1.27 mm | 0.45 m/s, 163° | 0 W/m² | - |
| 1778027675 | 15.56° C | 91% | 1006.4 hPa | 1.78 mm | 0.45 m/s, 165° | 0 W/m² | - |
* Rain latest hour (hover to see other rain measurements)
** Current wind speed in m/s (hover to see current wind gust speed)